Погода в Средних Чирках

Россия / Тюменская область     56°06′02″N   68°18′01″E
темп.,
°C
ветер,
м/с
пор.,
м/с
влажн.,
%
обл.,
%
осадки,
мм/ч
давл.,
гПа
погр.,
м
16 мая, вс
вс1623:00+21зюз4114441 0.0 1016162
02:00+19зсз4114899 0.0 1016176
05:00+18зсз4105397 0.0 1017169
08:00+24зсз4643100 0.1 1017238
11:00+29зсз7113299 0.1 10161575
14:00+30сз8122778 0.0 10162567
17:00+31сз7112626 0.0 10162712
20:00+25сз33409 0.0 101622
17 мая, пн
пн1723:00+22з224220 0.0 101615
02:00+20з4841100 0.0 1016115
05:00+18з37485 0.0 1017109
08:00+25зсз583753 0.0 1017360
11:00+30зсз810265 0.0 10162727
14:00+31зсз810217 0.0 10153897
17:00+31з711212 0.0 10143643
20:00+26зсз613321 0.0 1013378
18 мая, вт
вт1823:00+22сз51038100 0.0 1013241
02:00+17ю226250 0.1 101316
05:00+17зюз356097 0.1 101377
08:00+23з4645100 0.0 1012455
11:00+26зсз6103771 0.0 10102534
14:00+25ссз11114052 0.0 10101586
17:00+19с9136696 0.1 1012778
20:00+16с8116769 0.0 1014964
19 мая, ср
ср1923:00+12ссв71173100 0.0 1017870
02:00+11ссв711718 0.0 1019792
05:00+10ссв611712 0.0 1021704
08:00+12св68550 0.0 10231075
11:00+16ссв67395 0.0 10231609
14:00+18с563224 0.0 10231740
17:00+18ссв56300 0.0 10231780
20:00+14ссв224392 0.0 102323
20 мая, чт
чт2023:00+11с224533 0.0 102411
02:00+10сз114824 0.0 102410
05:00+9зюз225264 0.0 102425
08:00+16з464156 0.0 1024486
11:00+21зсз563515 0.0 10231716
14:00+23зсз673122 0.0 10211955
17:00+23зсз683177 0.0 10201820
20:00+19з47475 0.0 1019117